Powrót do katalogu

XINGWANG JISHU SW 05-01

AktywnyŁącznośćLEO
NORAD 62186·PAYLOAD·🇨🇳 China
Ta nazwa satelity nie została jeszcze potwierdzona przez oficjalne źródła.

Wystrzelony Nov 30, 2024 z Wenchang Space Launch Site

Loading…

Następne Przeloty (najbliższe 24 godziny)

TLE

ŚwieżeSource: Space-Track

Epoka: Sep 14, 2026, 14:25 UTC

1 62186U 24226B   26257.60112730 -.00000086  00000-0  75299-4 0  9992
2 62186  50.0062   1.2574 0011547 346.0951  13.9607 13.41508105 87710

Śledź XINGWANG JISHU SW 05-01 w czasie rzeczywistym z AllMySat

Download on the App Store